Weather History for Petaluma, CA

Change the Weather History Date:

Tuesday, December 10, 2013

  Actual Average (KAPC) Record (KAPC)
Temperature  
Mean Temperature 36 °F 46 °F  
Max Temperature 50 °F 56 °F 63 °F (2012)
Min Temperature 21 °F 36 °F 21 °F (2013)
Degree Days  
Heating Degree Days 30    
Month to date heating degree days  
Since 1 July heating degree days  
Cooling Degree Days 0    
Month to date cooling degree days  
Year to date cooling degree days  
Moisture  
Dew Point 25 °F    
Average Humidity 74    
Maximum Humidity 100    
Minimum Humidity 37    
Precipitation  
Precipitation 0.00 in - 2.02 in (1937)
Month to date precipitation  
Year to date precipitation  
Since 1 July precipitation  
Sea Level Pressure  
Sea Level Pressure 30.33 in    
Wind  
Wind Speed 1 mph (SE)    
Max Wind Speed 8 mph    
Max Gust Speed -    
Visibility 10 miles    
Events      
T = Trace of Precipitation, MM = Missing Value Source: NWS Daily Summary

Daily Weather History Graph

Daily Weather History Graph

Search for Another Location

Airport:

Trip Planner

Search our weather history database for the weather conditions in past years. The results will help you decide how hot, cold, wet, or windy it might be!

Date:

Astronomy

Dec. 10, 2013 Rise Set
Actual Time 7:16 AM PST 4:50 PM PST
Civil Twilight 6:47 AM PST 5:19 PM PST
Nautical Twilight 6:13 AM PST 5:52 PM PST
Astronomical Twilight 5:41 AM PST 6:24 PM PST
Moon 12:50 PM PST (12/10) 12:45 AM PST (12/10)
Length of Visible Light 10h 32m
Length of Day
9h 33m
Waxing Gibbous, 63% of the Moon is Illuminated
Dec 10
Waxing Gibbous
Dec 17
Full
Dec 25
Last Quarter
Jan 1
New
Jan 7
First Quarter

Hourly Weather History & Observations

Time (PST) Temp. Windchill Dew Point Humidity Pressure Visibility Wind Dir Wind Speed Gust Speed Precip Events Conditions
12:15 AM 24.8 °F - 23.0 °F 93% 30.45 in 10.0 mi Calm Calm - N/A   Clear
12:35 AM 24.8 °F - 23.0 °F 93% 30.44 in 10.0 mi Calm Calm - N/A   Clear
12:55 AM 24.8 °F - 23.0 °F 93% 30.44 in 10.0 mi Calm Calm - N/A   Clear
1:15 AM 24.8 °F - 23.0 °F 93% 30.43 in 10.0 mi Calm Calm - N/A   Clear
1:35 AM 23.0 °F 18.4 °F 23.0 °F 100% 30.43 in 10.0 mi East 3.5 mph - N/A   Clear
1:55 AM 24.8 °F - 23.0 °F 93% 30.43 in 10.0 mi Calm Calm - N/A   Partly Cloudy
2:15 AM 24.8 °F - 23.0 °F 93% 30.43 in 10.0 mi Calm Calm - N/A   Scattered Clouds
2:35 AM 24.8 °F - 23.0 °F 93% 30.42 in 10.0 mi Calm Calm - N/A   Partly Cloudy
2:55 AM 24.8 °F - 23.0 °F 93% 30.42 in 10.0 mi Calm Calm - N/A   Clear
3:15 AM 23.0 °F - 21.2 °F 93% 30.42 in 10.0 mi Calm Calm - N/A   Scattered Clouds
3:35 AM 24.8 °F - 23.0 °F 93% 30.41 in 10.0 mi Calm Calm - N/A   Partly Cloudy
3:55 AM 21.2 °F - 21.2 °F 100% 30.40 in 10.0 mi Calm Calm - N/A   Clear
4:15 AM 23.0 °F - 21.2 °F 93% 30.40 in 10.0 mi Calm Calm - N/A   Clear
4:35 AM 23.0 °F - 23.0 °F 100% 30.40 in 10.0 mi Calm Calm - N/A   Clear
4:55 AM 23.0 °F - 21.2 °F 93% 30.39 in 10.0 mi Calm Calm - N/A   Clear
5:15 AM 23.0 °F - 23.0 °F 100% 30.40 in 10.0 mi Calm Calm - N/A   Clear
5:35 AM 23.0 °F - 21.2 °F 93% 30.40 in 10.0 mi Calm Calm - N/A   Clear
5:55 AM 21.2 °F - 21.2 °F 100% 30.39 in 10.0 mi Calm Calm - N/A   Clear
6:15 AM 21.2 °F - 21.2 °F 100% 30.39 in 10.0 mi Calm Calm - N/A   Clear
6:35 AM 21.2 °F - 21.2 °F 100% 30.39 in 10.0 mi Calm Calm - N/A   Clear
6:55 AM 21.2 °F - 21.2 °F 100% 30.39 in 10.0 mi Calm Calm - N/A   Clear
7:15 AM 21.2 °F - 21.2 °F 100% 30.39 in 10.0 mi Calm Calm - N/A   Clear
7:35 AM 21.2 °F - 21.2 °F 100% 30.39 in 10.0 mi Calm Calm - N/A   Clear
7:55 AM 23.0 °F - 23.0 °F 100% 30.39 in 10.0 mi Calm Calm - N/A   Clear
8:15 AM 24.8 °F - 24.8 °F 100% 30.39 in 10.0 mi Calm Calm - N/A   Clear
8:35 AM 28.4 °F - 26.6 °F 93% 30.39 in 10.0 mi Calm Calm - N/A   Clear
8:55 AM 32.0 °F - 26.6 °F 80% 30.39 in 10.0 mi Calm Calm - N/A   Clear
9:15 AM 33.8 °F - 28.4 °F 81% 30.39 in 10.0 mi Calm Calm - N/A   Clear
9:35 AM 37.4 °F 32.8 °F 28.4 °F 70% 30.39 in 10.0 mi SSE 5.8 mph - N/A   Clear
9:55 AM 39.2 °F 37.0 °F 26.6 °F 61% 30.39 in 10.0 mi SE 3.5 mph - N/A   Clear
10:15 AM 39.2 °F - 26.6 °F 61% 30.39 in 10.0 mi Calm Calm - N/A   Clear
10:35 AM 41.0 °F - 26.6 °F 57% 30.38 in 10.0 mi Calm Calm - N/A   Clear
10:55 AM 42.8 °F 41.1 °F 26.6 °F 53% 30.37 in 10.0 mi SE 3.5 mph - N/A   Clear
11:15 AM 44.6 °F 43.1 °F 26.6 °F 49% 30.36 in 10.0 mi ESE 3.5 mph - N/A   Clear
11:35 AM 44.6 °F - 26.6 °F 49% 30.35 in 10.0 mi Calm Calm - N/A   Clear
11:55 AM 46.4 °F 45.2 °F 26.6 °F 46% 30.33 in 10.0 mi South 3.5 mph - N/A   Clear
12:15 PM 46.4 °F 44.3 °F 26.6 °F 46% 30.32 in 10.0 mi South 4.6 mph - N/A   Clear
12:35 PM 48.2 °F - 26.6 °F 43% 30.31 in 10.0 mi SSE 6.9 mph - N/A   Clear
12:55 PM 48.2 °F - 26.6 °F 43% 30.30 in 10.0 mi SSE 8.1 mph - N/A   Clear
1:15 PM 50.0 °F - 26.6 °F 40% 30.29 in 10.0 mi SSE 3.5 mph - N/A   Clear
1:35 PM 50.0 °F - 24.8 °F 37% 30.28 in 10.0 mi SSE 5.8 mph - N/A   Clear
1:55 PM 50.0 °F - 24.8 °F 37% 30.27 in 10.0 mi SE 4.6 mph - N/A   Clear
2:15 PM 50.0 °F - 24.8 °F 37% 30.26 in 10.0 mi SSE 6.9 mph - N/A   Clear
2:35 PM 50.0 °F - 24.8 °F 37% 30.26 in 10.0 mi SSE 4.6 mph - N/A   Clear
2:55 PM 50.0 °F - 24.8 °F 37% 30.25 in 10.0 mi South 5.8 mph - N/A   Clear
3:15 PM 50.0 °F - 26.6 °F 40% 30.25 in 10.0 mi SSE 4.6 mph - N/A   Clear
3:35 PM 50.0 °F - 26.6 °F 40% 30.25 in 10.0 mi SSE 5.8 mph - N/A   Clear
3:55 PM 50.0 °F - 26.6 °F 40% 30.26 in 10.0 mi South 5.8 mph - N/A   Clear
4:15 PM 48.2 °F - 26.6 °F 43% 30.26 in 10.0 mi Calm Calm - N/A   Clear
4:35 PM 46.4 °F 45.2 °F 26.6 °F 46% 30.25 in 10.0 mi SE 3.5 mph - N/A   Clear
4:55 PM 44.6 °F 43.1 °F 28.4 °F 53% 30.25 in 10.0 mi SSE 3.5 mph - N/A   Clear
5:15 PM 41.0 °F 39.0 °F 28.4 °F 61% 30.25 in 10.0 mi East 3.5 mph - N/A   Clear
5:35 PM 39.2 °F 37.0 °F 28.4 °F 65% 30.25 in 10.0 mi ENE 3.5 mph - N/A   Clear
5:55 PM 39.2 °F 37.0 °F 28.4 °F 65% 30.24 in 10.0 mi ENE 3.5 mph - N/A   Clear
6:15 PM 37.4 °F 34.9 °F 28.4 °F 70% 30.25 in 10.0 mi ENE 3.5 mph - N/A   Clear
6:35 PM 39.2 °F 37.0 °F 28.4 °F 65% 30.24 in 10.0 mi ENE 3.5 mph - N/A   Clear
6:55 PM 37.4 °F - 28.4 °F 70% 30.25 in 10.0 mi Calm Calm - N/A   Clear
7:15 PM 37.4 °F - 28.4 °F 70% 30.25 in 10.0 mi Calm Calm - N/A   Clear
7:35 PM 35.6 °F 32.8 °F 28.4 °F 75% 30.25 in 10.0 mi WSW 3.5 mph - N/A   Clear
7:55 PM 33.8 °F - 28.4 °F 81% 30.25 in 10.0 mi Calm Calm - N/A   Clear
8:15 PM 33.8 °F - 28.4 °F 81% 30.25 in 10.0 mi Calm Calm - N/A   Clear
8:35 PM 35.6 °F - 28.4 °F 75% 30.25 in 10.0 mi Calm Calm - N/A   Clear
8:55 PM 35.6 °F - 28.4 °F 75% 30.25 in 10.0 mi Calm Calm - N/A   Clear
9:15 PM 33.8 °F - 30.2 °F 87% 30.25 in 10.0 mi Calm Calm - N/A   Clear
9:35 PM 32.0 °F - 28.4 °F 87% 30.25 in 10.0 mi Calm Calm - N/A   Clear
9:55 PM 32.0 °F - 28.4 °F 87% 30.25 in 10.0 mi Calm Calm - N/A   Clear
10:15 PM 32.0 °F - 26.6 °F 80% 30.26 in 9.0 mi Calm Calm - N/A   Clear
10:35 PM 30.2 °F - 26.6 °F 86% 30.25 in 10.0 mi Calm Calm - N/A   Clear
10:55 PM 30.2 °F - 26.6 °F 86% 30.25 in 10.0 mi Calm Calm - N/A   Clear
11:15 PM 30.2 °F - 26.6 °F 86% 30.25 in 10.0 mi Calm Calm - N/A   Clear
11:35 PM 30.2 °F - 26.6 °F 86% 30.25 in 10.0 mi Calm Calm - N/A   Clear
11:55 PM 28.4 °F - 26.6 °F 93% 30.25 in 10.0 mi Calm Calm - N/A   Clear